Grazzanise, Italy

7:29 AM CEST on July 24, 2017 (GMT +0200)
Grazzanise Mil

Weather History for LIRM - October, 2013

Change the Weather History Date:

Wednesday, October 16, 2013

  Actual Average (LIRN) Record (LIRN)
Temperature  
Mean Temperature 66 °F -  
Max Temperature 73 °F 67 °F 79 °F (2014)
Min Temperature 58 °F 49 °F 48 °F (1997)
Growing Degree Days 16 (Base 50)    
Moisture  
Dew Point 61 °F    
Average Humidity 85    
Maximum Humidity 94    
Minimum Humidity 80    
Precipitation  
Precipitation 0.47 in 0.17 in - ()
Sea Level Pressure  
Sea Level Pressure 29.80 in    
Wind  
Wind Speed 4 mph ()    
Max Wind Speed 14 mph    
Max Gust Speed -    
Visibility 5.4 miles    
Events Rain , Thunderstorm    
Averages and records for this station are not official NWS values.
T = Trace of Precipitation, MM = Missing Value Source: Averaged Metar Reports

Daily Weather History Graph

Daily Weather History Graph

Search for Another Location

Airport or City:

Trip Planner

Search our weather history database for the weather conditions in past years. The results will help you decide how hot, cold, wet, or windy it might be!

Date:

Astronomy

Oct. 16, 2013 Rise Set
Actual Time 7:16 AM CEST 6:21 PM CEST
Civil Twilight 6:48 AM CEST 6:49 PM CEST
Nautical Twilight 6:16 AM CEST 7:21 PM CEST
Astronomical Twilight 5:44 AM CEST 7:53 PM CEST
Moon 4:52 PM CEST (10/16) 4:24 AM CEST (10/16)
Length of Visible Light 12h 00m
Length of Day
11h 05m
Waxing Gibbous, 92% of the Moon is Illuminated
Oct 16
Waxing Gibbous
Oct 19
Full
Oct 27
Last Quarter
Nov 3
New
Nov 10
First Quarter

Hourly Weather History & Observations

Time (CEST) Temp. Dew Point Humidity Pressure Visibility Wind Dir Wind Speed Gust Speed Precip Events Conditions
12:55 AM 62.6 °F 57.2 °F 82% 29.98 in 5.0 mi ESE 2.3 mph - N/A   Scattered Clouds
1:24 AM 59.0 °F 55.4 °F 88% 29.92 in 3.7 mi WSW 2.3 mph - N/A Rain , Thunderstorm Light Thunderstorms and Rain
1:55 AM 62.6 °F 57.2 °F 82% 29.95 in 5.0 mi East 3.5 mph - N/A Rain , Thunderstorm Light Thunderstorms and Rain
2:00 AM 62 °F 58 °F 81% 29.97 in 5 mi East 3.5 mph - - Rain , Thunderstorm Thunderstorms and Rain
2:55 AM 62.6 °F 59.0 °F 88% 29.92 in 4.3 mi SSE 3.5 mph - N/A Rain Light Rain
3:55 AM 60.8 °F 57.2 °F 88% 29.92 in 4.3 mi SSE 6.9 mph - N/A   Mostly Cloudy
4:55 AM 60.8 °F 57.2 °F 88% 29.89 in 5.0 mi Calm Calm - N/A   Scattered Clouds
5:00 AM 61 °F 56 °F 80% 29.89 in 5 mi Calm Calm - -   Mist
5:55 AM 59.0 °F 53.6 °F 82% 29.86 in 6.2 mi NNE 2.3 mph - N/A   Scattered Clouds
6:55 AM 59.0 °F 55.4 °F 88% 29.80 in 3.7 mi East 2.3 mph - N/A   Mostly Cloudy
7:19 AM 59.0 °F 55.4 °F 88% 29.80 in 2.2 mi NE 4.6 mph - N/A Rain Light Rain
7:55 AM 60.8 °F 57.2 °F 88% 29.77 in 1.6 mi North 4.6 mph - N/A Rain Light Rain
8:00 AM 61 °F 57 °F 82% 29.80 in 2 mi North 4.6 mph - - Rain Light Rain
8:55 AM 62.6 °F 57.2 °F 82% 29.77 in 2.2 mi NNE 2.3 mph - N/A Rain Light Rain
9:55 AM 64.4 °F 59.0 °F 83% 29.77 in 2.5 mi NNE 4.6 mph - N/A Rain Light Rain
10:30 AM 64.4 °F 59.0 °F 83% 29.77 in 6.2 mi NW 3.5 mph - N/A   Scattered Clouds
10:55 AM 64.4 °F 60.8 °F 88% 29.74 in 6.2 mi NW 3.5 mph - N/A   Mostly Cloudy
11:00 AM 65 °F 60 °F 80% 29.76 in 3 mi NW 3.5 mph - - Rain Light Rain
11:26 AM 64.4 °F 60.8 °F 88% 29.74 in 3.1 mi West 8.1 mph - N/A Rain Light Rain Showers
11:55 AM 68.0 °F 62.6 °F 83% 29.74 in 3.7 mi WNW 9.2 mph - N/A Rain Light Rain
12:55 PM 69.8 °F 64.4 °F 83% 29.74 in 6.2 mi West 9.2 mph - N/A   Scattered Clouds
1:55 PM 73.4 °F 68.0 °F 83% 29.71 in 6.2 mi West 9.2 mph - N/A   Scattered Clouds
2:00 PM 73 °F 68 °F 80% 29.72 in 12 mi West 9.2 mph - -   Partly Cloudy
2:55 PM 73.4 °F 69.8 °F 88% 29.71 in 6.2 mi West 9.2 mph - N/A   Partly Cloudy
3:55 PM 73.4 °F 69.8 °F 88% 29.71 in 6.2 mi West 8.1 mph - N/A   Partly Cloudy
4:55 PM 73.4 °F 68.0 °F 83% 29.68 in 6.2 mi WNW 13.8 mph - N/A   Partly Cloudy
5:00 PM 73 °F 68 °F 81% 29.70 in 12 mi WNW 13.8 mph - -   Scattered Clouds
5:55 PM 71.6 °F 68.0 °F 88% 29.71 in 6.2 mi WNW 9.2 mph - N/A   Scattered Clouds
6:55 PM 68.0 °F 64.4 °F 88% 29.74 in 6.2 mi ESE 12.7 mph - N/A   Scattered Clouds
7:55 PM 66.2 °F 62.6 °F 88% 29.77 in 6.2 mi East 5.8 mph - N/A   Scattered Clouds
8:55 PM 64.4 °F 62.6 °F 94% 29.80 in 6.2 mi NE 5.8 mph - N/A   Scattered Clouds
9:55 PM 62.6 °F 60.8 °F 94% 29.83 in 6.2 mi ENE 8.1 mph - N/A   Partly Cloudy
10:55 PM 62.6 °F 59.0 °F 88% 29.86 in 6.2 mi ENE 4.6 mph - N/A   Partly Cloudy
11:00 PM 63 °F 60 °F 85% 29.86 in 12 mi ENE 4.6 mph - -   Scattered Clouds
11:55 PM 60.8 °F 57.2 °F 88% 29.86 in - ENE 3.5 mph - N/A   Clear